Location: Unspecified
(51.5147°N, 7.4673°E)
Time: 08:53:46
(UTC+01:00)

Vanguard 1 Rocket - Pass Details

Date: 25 February 2026
Orbit: 653 x 4214 km, 34.3° (Epoch: 7 March)

Event Time Altitude Azimuth Distance (km) Brightness Sun altitude
Rises 16:31:03 0° 260° (W) 4,841 12.5 12.3°
Reaches altitude 10° 16:34:15 10° 250° (WSW) 4,264 13.1 11.9°
Maximum altitude 16:44:19 30° 195° (SSW) 4,044 11.5 10.6°
Drops below altitude 10° 17:00:20 10° 145° (SE) 6,821 11.8 8.4°
Sets 17:07:31 0° 137° (SE) 8,216 12.1 7.3°
